[[{"header":{"parameterUnit":"m.s-1","parameterCategory":1,"la1":30.2991,"la2":30.254,"lo1":-89.0895,"lo2":-89.0444,"dy":0.0017,"dx":0.0017,"nx":28,"ny":28,"refTime":"2024-02-12T09:00:00:Z","depth":0,"parameterNumber":2,"parameterNumberName":"U-component_of_WINDS"},"data":[0,0,0,0,0,0,0,0,0,0,0,0,0,0,0,0,0,0,0,0,0,0,0,0,0,0,0,0,0,0,0,0,0,0,0,0,0,0,0,0,0,0,0,0,0,0,0,0,0,0,0,0,0,0,0,0,0,0,-1.4035,-1.4034,0,-1.396,-1.3959,-1.3959,-1.3952,-1.3953,-1.3953,-1.3954,-1.3875,-1.3873,-1.387,0,0,0,0,0,0,0,0,0,0,0,0,0,-1.4169,-1.4167,-1.4035,-1.4034,-1.4033,-1.396,-1.3959,-1.3958,-1.3952,-1.3953,-1.3953,-1.3954,-1.3876,-1.3873,-1.387,0,0,0,0,0,0,0,0,0,0,0,0,0,-1.4104,-1.4166,-1.4035,-1.4021,-1.4019,-1.3961,-1.3959,-1.3958,-1.3951,-1.3953,-1.3954,-1.3955,-1.3877,-1.3873,-1.3869,-1.3819,0,0,-1.3856,-1.3854,0,0,0,0,0,0,0,0,-1.4108,-1.41,-1.4024,-1.4022,-1.4019,-1.3967,-1.3978,-1.3911,-1.3951,-1.3977,-1.3954,-1.3955,-1.3905,-1.3898,-1.3882,-1.3815,-1.3812,-1.3856,-1.3853,-1.3851,-1.385,0,0,0,0,0,0,0,-1.4113,-1.4103,-1.4005,-1.4023,-1.402,-1.4018,-1.401,-1.3965,-1.3935,-1.3975,-1.3974,-1.3966,-1.3904,-1.3886,-1.388,-1.3811,-1.3856,-1.3852,-1.385,-1.3848,-1.3699,-1.3698,0,0,0,0,0,0,-1.412,-1.4106,-1.4008,-1.4003,-1.4068,-1.4014,-1.4005,-1.3982,-1.3935,-1.3929,-1.3965,-1.3965,-1.3892,-1.3885,-1.3877,-1.3814,-1.3851,-1.3847,-1.3845,-1.37,-1.3699,-1.3697,0,0,0,0,0,0,-1.4123,-1.4111,-1.4011,-1.4055,-1.4042,-1.4011,-1.3985,-1.398,-1.3962,-1.3928,-1.3922,-1.3952,-1.3893,-1.3883,-1.3833,-1.3811,-1.3846,-1.3842,-1.3702,-1.37,-1.3698,-1.3688,0,0,0,0,0,0,-1.4127,-1.4112,-1.4094,-1.4054,-1.4039,-1.3969,-1.3983,-1.3978,-1.3955,-1.3956,-1.3914,-1.3909,-1.3893,-1.384,-1.3829,-1.3806,-1.3838,-1.3704,-1.3701,-1.3699,-1.369,-1.3686,-1.3682,0,0,0,0,0,-1.4132,-1.4094,-1.4093,-1.4081,-1.4015,-1.3968,-1.3959,-1.3943,-1.3954,-1.3934,-1.3912,-1.391,-1.3816,-1.3835,-1.3823,-1.3798,-1.3705,-1.3702,-1.3699,-1.3692,-1.3687,-1.3682,0,0,0,0,0,0,-1.413,-1.4088,-1.4087,-1.4035,-1.4005,-1.3967,-1.3941,-1.3938,-1.3904,-1.3905,-1.3886,-1.3877,-1.3828,-1.3808,-1.383,-1.3747,-1.3761,-1.3756,-1.3761,-1.3755,-1.3751,-1.3756,-1.3835,0,0,0,0,0,-1.4124,-1.409,-1.4055,-1.4012,-1.3998,-1.3972,-1.3951,-1.3941,-1.3909,-1.3896,-1.387,-1.3839,-1.3802,-1.3778,-1.3742,-1.3689,-1.3678,-1.3665,-1.3662,-1.3658,-1.3653,-1.3621,-1.3615,-1.3687,-1.3687,-1.3687,0,0,-1.4111,-1.4083,-1.4063,-1.4011,-1.3987,-1.3951,-1.3961,-1.3923,-1.3896,-1.389,-1.3841,-1.3822,-1.3785,-1.3733,-1.3709,-1.3715,-1.3631,-1.3654,-1.3652,-1.3648,-1.3617,-1.3611,-1.3604,-1.3685,-1.3685,-1.3685,0,0,-1.4067,-1.4044,-1.4005,-1.3981,-1.3944,-1.3928,-1.3919,-1.3881,-1.3867,-1.3819,-1.3813,-1.3781,-1.3718,-1.3692,-1.367,-1.3618,-1.3614,-1.3607,-1.3585,-1.3554,-1.3549,-1.3544,-1.3523,-1.3516,-1.3602,-1.3602,-1.3602,0,-1.4054,-1.4,-1.3986,-1.3947,-1.3924,-1.3918,-1.3878,-1.3856,-1.3809,-1.3793,-1.3801,-1.3722,-1.3697,-1.3638,-1.3625,-1.3609,-1.3597,-1.361,-1.3551,-1.3546,-1.354,-1.352,-1.3513,-1.3601,-1.3601,-1.3601,-1.3601,0,-1.3986,-1.3948,-1.3922,-1.3877,-1.3851,-1.3812,-1.3791,-1.3767,-1.3759,-1.3742,-1.3692,-1.3662,-1.362,-1.3606,-1.3598,-1.3545,-1.355,-1.3555,-1.3569,-1.3533,-1.3513,-1.3506,-1.36,-1.36,-1.3601,-1.3601,0,0,-1.3937,-1.3886,-1.3876,-1.3855,-1.3814,-1.3785,-1.3746,-1.3705,-1.3683,-1.3652,-1.3617,-1.3565,-1.357,-1.3545,-1.3535,-1.3509,-1.3466,-1.3517,-1.3515,-1.3506,-1.3404,-1.3398,-1.339,-1.3465,-1.3464,-1.3463,-1.3406,0,-1.3887,-1.3817,-1.3803,-1.3742,-1.3706,-1.3701,-1.3666,-1.3637,-1.362,-1.3587,-1.3568,-1.353,-1.354,-1.3525,-1.3499,-1.3477,-1.3445,-1.3481,-1.3431,-1.3429,-1.3437,-1.338,-1.3374,-1.3322,-1.3399,-1.3398,-1.3397,0,-1.3819,-1.3786,-1.3721,-1.3685,-1.3669,-1.3639,-1.36,-1.3569,-1.3536,-1.3525,-1.3498,-1.3491,-1.3449,-1.3467,-1.3408,-1.3433,-1.3412,-1.3398,-1.3396,-1.3388,-1.3409,-1.3368,-1.3306,-1.3297,-1.3385,-1.3386,-1.3387,0,-1.3787,-1.3727,-1.368,-1.3663,-1.362,-1.3598,-1.3579,-1.3547,-1.3523,-1.349,-1.3474,-1.3436,-1.3414,-1.3384,-1.3366,-1.3382,-1.3308,-1.3326,-1.3297,-1.3297,-1.3279,-1.328,-1.3209,-1.327,-1.327,-1.327,-1.327,0,-1.3732,-1.3692,-1.3665,-1.3636,-1.3591,-1.3575,-1.353,-1.3512,-1.3483,-1.345,-1.3444,-1.3412,-1.3392,-1.3358,-1.3344,-1.3296,-1.3287,-1.3276,-1.3272,-1.3275,-1.3276,-1.3258,-1.3261,-1.3268,-1.3269,-1.3269,-1.3269,0,-1.3687,-1.3668,-1.3616,-1.358,-1.357,-1.3538,-1.3506,-1.3478,-1.3461,-1.3419,-1.3408,-1.3381,-1.334,-1.332,-1.327,-1.326,-1.3205,-1.3205,-1.3216,-1.3214,-1.3185,-1.3187,-1.3099,-1.3085,-1.3158,-1.3157,-1.3157,0,-1.3652,-1.3621,-1.3581,-1.3558,-1.3539,-1.3502,-1.3478,-1.3462,-1.3437,-1.3397,-1.3372,-1.3331,-1.3297,-1.3232,-1.3208,-1.3169,-1.3166,-1.3138,-1.316,-1.3163,-1.3162,-1.3163,-1.3159,-1.3133,-1.3132,-1.3131,-1.3131,0,-1.359,-1.3582,-1.3547,-1.3509,-1.348,-1.3449,-1.3419,-1.34,-1.3379,-1.3351,-1.3309,-1.3283,-1.3231,-1.319,-1.3149,-1.3129,-1.3125,-1.3125,-1.3115,-1.3116,-1.3123,-1.3116,-1.3202,-1.3126,-1.3127,-1.3127,-1.3127,-1.3127,-1.3547,-1.3518,-1.3486,-1.3447,-1.3423,-1.3394,-1.3365,-1.3345,-1.331,-1.3266,-1.3259,-1.3214,-1.3182,-1.3127,-1.3105,-1.3069,-1.3075,-1.3063,-1.3059,-1.3055,-1.3052,-1.3131,-1.3062,-1.3063,-1.3063,-1.3063,-1.3063,0,-1.3482,-1.3461,-1.3426,-1.3383,-1.3352,-1.3354,-1.332,-1.3294,-1.3255,-1.3225,-1.3192,-1.3143,-1.3103,-1.3076,-1.3036,-1.3012,-1.3009,-1.3001,-1.3001,-1.2996,-1.305,-1.3061,-1.3004,-1.3004,-1.3004,-1.3004,-1.3004,-1.3004,-1.3444,-1.3396,-1.3384,-1.3323,-1.3302,-1.3258,-1.3238,-1.3212,-1.3188,-1.3134,-1.3101,-1.3084,-1.3055,-1.3012,-1.2975,-1.2968,-1.2952,-1.2944,-1.2937,-1.2987,-1.2993,-1.2999,-1.3009,-1.2941,-1.2941,-1.2885,-1.2885,-1.2884]},{"header":{"parameterUnit":"m.s-1","parameterCategory":1,"la1":30.2991,"la2":30.254,"lo1":-89.0895,"lo2":-89.0444,"dy":0.0017,"dx":0.0017,"nx":28,"ny":28,"refTime":"2024-02-12T09:00:00:Z","depth":0,"parameterNumber":3,"parameterNumberName":"V-component_of_WINDS"},"data":[0,0,0,0,0,0,0,0,0,0,0,0,0,0,0,0,0,0,0,0,0,0,0,0,0,0,0,0,0,0,0,0,0,0,0,0,0,0,0,0,0,0,0,0,0,0,0,0,0,0,0,0,0,0,0,0,0,0,3.9924,3.9922,0,3.9736,3.9734,3.9732,3.9582,3.958,3.9579,3.9577,3.9379,3.9375,3.9371,0,0,0,0,0,0,0,0,0,0,0,0,0,4.0148,4.0145,3.9924,3.9922,3.9919,3.9736,3.9734,3.9731,3.9582,3.958,3.9578,3.9577,3.938,3.9375,3.937,0,0,0,0,0,0,0,0,0,0,0,0,0,4.0015,4.0144,3.9924,3.9823,3.9812,3.9737,3.9734,3.973,3.9582,3.958,3.9578,3.9576,3.9381,3.9376,3.937,3.9378,0,0,3.9352,3.9349,0,0,0,0,0,0,0,0,4.0022,4.0006,3.984,3.983,3.9817,3.968,3.974,3.9612,3.9583,3.9669,3.9577,3.9575,3.948,3.9466,3.9436,3.9369,3.936,3.9351,3.9348,3.9345,3.9344,0,0,0,0,0,0,0,4.0032,4.0014,3.9849,3.9838,3.9824,3.9785,3.9764,3.9715,3.9589,3.9662,3.965,3.9631,3.9473,3.9442,3.943,3.9357,3.9352,3.9346,3.9343,3.934,3.929,3.9292,0,0,0,0,0,0,4.0057,4.0022,3.9855,3.9844,3.9917,3.9783,3.9759,3.9726,3.959,3.9567,3.9633,3.9624,3.9453,3.9437,3.9422,3.9425,3.9345,3.934,3.9336,3.9288,3.929,3.9293,0,0,0,0,0,0,4.0063,4.0044,3.9863,3.993,3.9904,3.9781,3.9746,3.9724,3.9692,3.9568,3.9544,3.9624,3.945,3.943,3.9391,3.9416,3.9337,3.9332,3.9285,3.9289,3.9292,3.9429,0,0,0,0,0,0,4.007,4.0047,4.005,3.9931,3.9901,3.9837,3.9747,3.9722,3.9683,3.967,3.9553,3.9531,3.9447,3.9401,3.9385,3.9406,3.9327,3.9282,3.9287,3.9291,3.9422,3.9437,3.945,0,0,0,0,0,4.0079,4.0094,4.0051,4.0032,3.9903,3.9839,3.9821,3.9726,3.9685,3.9687,3.9608,3.9535,3.9416,3.9398,3.9379,3.9399,3.928,3.9285,3.929,3.9416,3.9434,3.9449,0,0,0,0,0,0,4.0216,4.0077,4.0027,4.0005,3.9936,3.9814,3.9812,3.9748,3.9686,3.9677,3.9559,3.9534,3.9508,3.9448,3.9432,3.9401,3.9338,3.934,3.9441,3.9457,3.947,3.9486,3.9322,0,0,0,0,0,4.0245,4.0206,4.0085,4.0078,4.0046,3.9936,3.9904,3.9837,3.9759,3.9728,3.9645,3.9571,3.9516,3.9483,3.9426,3.9413,3.9385,3.9417,3.9431,3.9443,3.9445,3.9436,3.9449,3.9309,3.9309,3.9309,0,0,4.0301,4.0221,4.0203,4.0104,4.0041,4.0004,3.9912,3.9874,3.9845,3.9721,3.9681,3.9618,3.9526,3.9501,3.9486,3.9451,3.9478,3.9449,3.9459,3.9455,3.9442,3.9456,3.9468,3.9312,3.9312,3.9311,0,0,4.0387,4.0322,4.0309,4.025,4.0158,4.0085,4.0083,3.9971,3.9926,3.9883,3.9791,3.9752,3.9661,3.9601,3.9558,3.9623,3.9555,3.9607,3.968,3.9672,3.9683,3.9692,3.9717,3.9728,3.961,3.9611,3.9611,0,4.0469,4.041,4.031,4.028,4.0239,4.0129,4.0115,4.0061,3.9955,3.9929,3.9892,3.9777,3.9707,3.9668,3.9684,3.9653,3.9646,3.9621,3.969,3.9698,3.9705,3.9728,3.9737,3.9618,3.9617,3.9616,3.9616,0,4.0516,4.0477,4.0477,4.0382,4.034,4.0319,4.0215,4.0185,4.0122,4.0053,4.0012,3.9925,3.985,3.9834,3.9771,3.9786,3.9768,3.9712,3.9648,3.9728,3.9747,3.9755,3.9628,3.9626,3.9624,3.9622,0,0,4.0682,4.0534,4.0536,4.0492,4.0384,4.035,4.0323,4.0252,4.023,4.016,4.0135,4.0061,4.001,3.9962,3.989,3.9884,3.9944,3.9828,3.9824,3.9855,3.9957,4.0001,4.0013,3.9897,3.9898,3.9899,3.9965,0,4.0752,4.0701,4.0611,4.0588,4.0551,4.0446,4.0423,4.0353,4.0288,4.0246,4.0172,4.0123,4.0058,4.0029,4.0017,3.9939,3.9963,3.9933,3.9872,3.9871,3.9901,4.0022,4.0068,4.0134,3.9972,3.9973,3.9974,0,4.0826,4.0767,4.0741,4.0638,4.0619,4.06,4.0529,4.049,4.0409,4.0362,4.031,4.0233,4.0198,4.014,4.009,4.0072,4.0042,4.0,4.0,3.9991,3.9929,4.0019,4.0153,4.0164,3.9984,3.9983,3.9982,0,4.0953,4.0866,4.084,4.0805,4.0683,4.0673,4.0621,4.0538,4.0502,4.0439,4.0414,4.0347,4.031,4.026,4.0167,4.0132,4.0128,4.0061,4.0088,4.0091,4.0093,4.0095,4.0226,4.0071,4.0071,4.0071,4.0071,0,4.1041,4.103,4.0896,4.088,4.0864,4.0761,4.0748,4.0686,4.0614,4.0583,4.0487,4.046,4.0338,4.0297,4.0223,4.0195,4.0178,4.0139,4.012,4.0149,4.0154,4.0128,4.0122,4.0074,4.0073,4.0073,4.0072,0,4.118,4.109,4.1055,4.0944,4.0916,4.091,4.0813,4.0793,4.0723,4.0686,4.0671,4.0561,4.0507,4.041,4.0327,4.0278,4.0266,4.0231,4.0294,4.0283,4.0317,4.0316,4.0437,4.0449,4.0286,4.0288,4.0289,0,4.1243,4.1233,4.1122,4.1096,4.1049,4.1008,4.0972,4.0869,4.0835,4.0744,4.0735,4.0675,4.0621,4.0541,4.0452,4.0389,4.0353,4.04,4.0343,4.0373,4.0356,4.0359,4.0358,4.0414,4.0416,4.0418,4.042,0,4.1365,4.1322,4.1274,4.1213,4.1173,4.1118,4.1058,4.1042,4.0925,4.0891,4.0837,4.0796,4.0714,4.0656,4.0581,4.0525,4.0454,4.0439,4.0442,4.0472,4.051,4.0492,4.0332,4.0436,4.0435,4.0433,4.0432,4.0432,4.1469,4.1456,4.1377,4.1328,4.1273,4.122,4.1197,4.1125,4.1079,4.1007,4.0948,4.09,4.0819,4.0711,4.066,4.062,4.0586,4.059,4.0591,4.0595,4.0608,4.0516,4.0605,4.0605,4.0604,4.0603,4.0603,0,4.1588,4.1533,4.1489,4.141,4.1372,4.131,4.1241,4.1212,4.1172,4.1104,4.1055,4.0993,4.0937,4.0845,4.078,4.0765,4.0731,4.0752,4.0753,4.0742,4.064,4.0645,4.0781,4.0781,4.0781,4.0781,4.0781,4.0781,4.1646,4.1622,4.1569,4.1517,4.146,4.1414,4.138,4.133,4.1276,4.1214,4.1167,4.1109,4.1031,4.0961,4.0906,4.088,4.0861,4.0894,4.0858,4.0765,4.0748,4.0733,4.0737,4.089,4.089,4.0962,4.0963,4.0964]}]]